WD8EHT Weather Reports


time (UTC)temp
F
wind
direction
speed
knots
gust
knots
rain 1hr
in
rain 24hr
in
rain mn
in
humidity
%
barometer
mb
20260509032407 45 28 0.0 0.0 0.00 0.00 0.00 59 1005.2
20260509031905 45 28 0.0 0.0 0.00 0.00 0.00 58 1005.1
20260509031402 45 28 0.0 0.0 0.00 0.00 0.00 56 1005.2
20260509030859 46 19 0.0 0.0 0.00 0.00 0.00 55 1005.5
20260509030358 46 15 0.0 0.0 0.00 0.00 0.00 55 1005.5
20260509025854 46 16 0.0 0.0 0.00 0.00 0.00 52 1005.5
20260509025349 46 23 0.0 0.0 0.00 0.00 0.00 52 1005.4
20260509024845 47 17 0.0 0.0 0.00 0.00 0.00 50 1005.6
20260509024341 47 29 0.0 0.0 0.00 0.00 0.00 49 1005.7
20260509023839 47 29 0.0 0.0 0.00 0.00 0.00 48 1005.9
20260509023336 47 29 0.0 0.0 0.00 0.00 0.00 47 1006.0
20260509022832 47 29 0.0 0.0 0.00 0.00 0.00 48 1006.0
20260509022330 48 33 0.0 0.0 0.00 0.00 0.00 47 1005.9
20260509021826 48 29 0.0 0.0 0.00 0.00 0.00 46 1005.6
20260509021324 49 29 0.0 0.0 0.00 0.00 0.00 43 1005.9
20260509020821 49 29 0.0 0.0 0.00 0.00 0.00 42 1005.6
20260509020319 50 29 0.0 0.0 0.00 0.00 0.00 43 1006.0
20260509015817 50 29 0.0 0.0 0.00 0.00 0.00 44 1005.7
20260509015315 50 30 0.0 0.0 0.00 0.00 0.00 44 1005.5
20260509014811 51 20 0.0 0.0 0.00 0.00 0.00 42 1005.7
20260509014308 51 30 0.0 0.0 0.00 0.00 0.00 38 1005.3
20260509013805 52 30 0.0 0.0 0.00 0.00 0.00 37 1005.4
20260509013301 53 29 0.0 0.0 0.00 0.00 0.00 35 1005.7
20260509012757 53 29 0.0 0.0 0.00 0.00 0.00 35 1005.5
20260509012254 55 22 0.0 0.0 0.00 0.00 0.00 33 1005.3
20260509011751 56 17 0.0 0.0 0.00 0.00 0.00 31 1005.6
20260509011248 56 16 0.0 0.0 0.00 0.00 0.00 30 1005.5
20260509010746 57 12 0.0 0.0 0.00 0.00 0.00 29 1005.5
20260509010243 57 10 0.0 0.0 0.00 0.00 0.00 28 1005.5
20260509005741 57 41 0.0 0.0 0.00 0.00 0.00 27 1005.4
20260509005238 58 11 0.0 0.0 0.00 0.00 0.00 27 1005.4
20260509004737 58 12 0.0 0.0 0.00 0.00 0.00 26 1005.4
20260509004235 58 13 1.7 1.7 0.00 0.00 0.00 26 1005.2
20260509003733 59 58 0.9 0.9 0.00 0.00 0.00 26 1005.3
20260509003230 59 34 0.0 0.9 0.00 0.00 0.00 26 1005.3
20260509002727 60 3 0.9 1.7 0.00 0.00 0.00 25 1005.3
20260509002225 60 20 0.9 1.7 0.00 0.00 0.00 26 1005.2
20260509001723 60 5 0.9 1.7 0.00 0.00 0.00 25 1005.1
20260509001218 61 18 0.9 1.7 0.00 0.00 0.00 25 1005.2
20260509000717 61 38 1.7 1.7 0.00 0.00 0.00 24 1005.2
20260509000213 61 108 0.9 1.7 0.00 0.00 0.00 24 1005.1
20260508235710 62 338 0.9 1.7 0.00 0.00 0.00 25 1005.2
20260508235207 62 331 1.7 2.6 0.00 0.00 0.00 23 1005.2
20260508234704 62 359 1.7 1.7 0.00 0.00 0.00 24 1005.2
20260508234200 62 275 2.6 2.6 0.00 0.00 0.00 24 1005.1
20260508233700 62 6 1.7 2.6 0.00 0.00 0.00 24 1005.3
20260508233157 63 25 1.7 2.6 0.00 0.00 0.00 23 1005.1
20260508232655 63 11 2.6 2.6 0.00 0.00 0.00 23 1005.0
20260508232151 64 206 1.7 2.6 0.00 0.00 0.00 24 1004.9
20260508231649 64 358 0.0 0.9 0.00 0.00 0.00 23 1005.0
20260508231145 64 23 2.6 2.6 0.00 0.00 0.00 23 1004.9
20260508230642 64 322 0.9 2.6 0.00 0.00 0.00 22 1004.8
20260508230138 64 18 4.3 6.1 0.00 0.00 0.00 23 1004.8
20260508225637 64 47 2.6 2.6 0.00 0.00 0.00 24 1005.0
20260508225132 64 31 1.7 1.7 0.00 0.00 0.00 24 1004.7
20260508224630 65 332 0.9 0.9 0.00 0.00 0.00 23 1004.8
20260508224128 65 13 1.7 1.7 0.00 0.00 0.00 24 1004.9
20260508223626 65 345 2.6 2.6 0.00 0.00 0.00 23 1004.8
20260508223122 65 22 2.6 2.6 0.00 0.00 0.00 24 1004.7
20260508222620 66 338 0.9 0.9 0.00 0.00 0.00 25 1004.7
20260508222117 67 332 0.9 0.9 0.00 0.00 0.00 21 1004.8
20260508221613 67 55 1.7 2.6 0.00 0.00 0.00 23 1004.8
20260508221109 66 35 0.0 0.9 0.00 0.00 0.00 24 1005.0
20260508220606 66 248 0.9 0.9 0.00 0.00 0.00 24 1004.9
20260508215559 67 4 0.9 1.7 0.00 0.00 0.00 23 1004.9
20260508215055 66 291 0.9 0.9 0.00 0.00 0.00 26 1005.0
20260508214553 67 199 1.7 4.3 0.00 0.00 0.00 24 1004.9
20260508214049 67 297 0.9 2.6 0.00 0.00 0.00 26 1004.9
20260508213547 67 196 3.5 4.3 0.00 0.00 0.00 24 1005.0
20260508213042 66 61 2.6 4.3 0.00 0.00 0.00 26 1004.9
20260508212539 66 304 0.9 1.7 0.00 0.00 0.00 29 1004.9
20260508212035 66 151 1.7 2.6 0.00 0.00 0.00 29 1005.1
20260508211531 67 15 2.6 2.6 0.00 0.00 0.00 28 1005.0
20260508211027 67 225 0.0 0.9 0.00 0.00 0.00 28 1004.9
20260508210524 67 39 1.7 1.7 0.00 0.00 0.00 28 1004.9
20260508210022 68 2 2.6 2.6 0.00 0.00 0.00 28 1005.2
20260508205519 67 337 0.9 0.9 0.00 0.00 0.00 29 1005.1
20260508205015 67 9 0.9 0.9 0.00 0.00 0.00 26 1005.2
20260508204512 65 328 0.9 1.7 0.00 0.00 0.00 27 1005.2
20260508204007 66 45 3.5 6.1 0.00 0.00 0.00 27 1005.4
20260508203504 67 43 0.9 1.7 0.00 0.00 0.00 29 1005.3
20260508202959 66 91 0.9 0.9 0.00 0.00 0.00 30 1005.5
20260508202457 66 38 3.5 4.3 0.00 0.00 0.00 28 1005.5
20260508201954 67 141 1.7 1.7 0.00 0.00 0.00 26 1005.5
20260508201451 67 347 0.9 0.9 0.00 0.00 0.00 31 1005.6
20260508200947 67 311 0.9 1.7 0.00 0.00 0.00 28 1005.7
20260508200445 67 33 0.0 0.9 0.00 0.00 0.00 27 1006.0
20260508195944 66 118 1.7 2.6 0.00 0.00 0.00 32 1006.0
20260508195443 65 306 1.7 2.6 0.00 0.00 0.00 31 1006.2
20260508194938 65 297 0.9 0.9 0.00 0.00 0.00 29 1006.3
20260508194436 64 11 0.9 1.7 0.00 0.00 0.00 30 1006.4
20260508193933 66 175 2.6 2.6 0.00 0.00 0.00 28 1006.3
20260508193430 66 81 0.9 0.9 0.00 0.00 0.00 30 1006.5
20260508192926 65 181 2.6 4.3 0.00 0.00 0.00 31 1006.5
20260508192423 64 29 0.0 0.0 0.00 0.00 0.00 34 1006.6
20260508191920 66 6 2.6 2.6 0.00 0.00 0.00 31 1006.8
20260508191417 66 34 1.7 1.7 0.00 0.00 0.00 31 1006.8
20260508190914 65 351 0.0 0.9 0.00 0.00 0.00 33 1007.2
20260508190411 64 329 0.0 0.9 0.00 0.00 0.00 33 1007.0
20260508185907 64 164 2.6 2.6 0.00 0.00 0.00 32 1006.8
20260508185405 64 167 0.0 0.9 0.00 0.00 0.00 32 1007.1
20260508184902 63 68 1.7 1.7 0.00 0.00 0.00 31 1006.9
20260508184359 63 356 2.6 4.3 0.00 0.00 0.00 32 1007.2
20260508183855 64 294 2.6 4.3 0.00 0.00 0.00 31 1007.2
20260508183352 65 359 1.7 1.7 0.00 0.00 0.00 34 1007.4
20260508182848 64 344 0.0 0.9 0.00 0.00 0.00 33 1007.4
20260508182345 64 32 1.7 1.7 0.00 0.00 0.00 32 1007.3
20260508181840 63 183 0.9 0.9 0.00 0.00 0.00 33 1007.5
20260508181337 63 351 0.0 0.9 0.00 0.00 0.00 34 1007.6
20260508180834 64 166 0.9 2.6 0.00 0.00 0.00 31 1007.8
20260508180331 63 117 0.9 0.9 0.00 0.00 0.00 35 1007.8
20260508175827 63 173 0.9 0.9 0.00 0.00 0.00 33 1007.9
20260508175324 63 306 0.0 0.0 0.00 0.00 0.00 35 1007.8
20260508174823 62 8 2.6 2.6 0.00 0.00 0.00 35 1007.8
20260508174319 63 316 0.9 0.9 0.00 0.00 0.00 32 1008.0
20260508173815 62 288 0.9 1.7 0.00 0.00 0.00 35 1008.1
20260508173313 62 260 1.7 2.6 0.00 0.00 0.00 34 1008.2
20260508172809 61 38 1.7 1.7 0.00 0.00 0.00 32 1008.3
20260508172307 62 4 2.6 2.6 0.00 0.00 0.00 33 1008.6
20260508171802 62 356 6.1 7.8 0.00 0.00 0.00 33 1008.6
20260508171258 62 308 2.6 2.6 0.00 0.00 0.00 33 1008.4
20260508170755 62 18 2.6 2.6 0.00 0.00 0.00 34 1008.5
20260508170253 61 332 1.7 2.6 0.00 0.00 0.00 32 1008.7
20260508165750 62 1 2.6 4.3 0.00 0.00 0.00 31 1009.1
20260508165247 61 183 0.0 0.9 0.00 0.00 0.00 33 1008.9
20260508164743 62 148 5.2 6.1 0.00 0.00 0.00 34 1008.8
20260508164240 62 332 0.0 0.9 0.00 0.00 0.00 34 1008.9
20260508163738 60 5 0.0 0.0 0.00 0.00 0.00 34 1008.9
20260508163236 61 9 2.6 2.6 0.00 0.00 0.00 32 1009.1
20260508162731 61 150 1.7 1.7 0.00 0.00 0.00 37 1009.0
20260508162228 61 90 0.0 0.0 0.00 0.00 0.00 33 1008.9
20260508161725 60 8 0.0 0.0 0.00 0.00 0.00 35 1008.9
20260508161222 60 248 1.7 2.6 0.00 0.00 0.00 32 1009.0
20260508160720 60 348 0.9 0.9 0.00 0.00 0.00 38 1009.2
20260508160218 61 357 0.0 0.0 0.00 0.00 0.00 35 1009.3
20260508155715 61 68 0.9 0.9 0.00 0.00 0.00 35 1009.1
20260508155212 60 101 0.9 1.7 0.00 0.00 0.00 37 1009.1
20260508154709 60 3 3.5 4.3 0.00 0.00 0.00 35 1009.2
20260508154206 61 349 0.0 0.0 0.00 0.00 0.00 39 1009.5
20260508153702 59 351 0.0 0.0 0.00 0.00 0.00 35 1009.5
20260508153159 59 198 1.7 2.6 0.00 0.00 0.00 38 1009.5
20260508152656 59 171 1.7 1.7 0.00 0.00 0.00 39 1009.5
20260508152152 60 49 0.9 0.9 0.00 0.00 0.00 41 1009.6
20260508151648 59 189 1.7 2.6 0.00 0.00 0.00 41 1009.6
20260508151145 59 304 0.9 1.7 0.00 0.00 0.00 43 1009.5
20260508150642 58 184 0.0 0.0 0.00 0.00 0.00 41 1009.7
20260508150139 58 304 0.0 0.9 0.00 0.00 0.00 43 1009.7
20260508145634 56 341 0.0 0.9 0.00 0.00 0.00 47 1009.7
20260508145131 58 162 2.6 2.6 0.00 0.00 0.00 43 1009.9
20260508144629 57 21 0.0 0.0 0.00 0.00 0.00 46 1009.9
20260508144126 58 318 2.6 4.3 0.00 0.00 0.00 44 1009.9
20260508143624 59 79 0.0 0.0 0.00 0.00 0.00 41 1010.1
20260508143120 58 341 1.7 1.7 0.00 0.00 0.00 43 1010.0
20260508142617 58 171 0.9 0.9 0.00 0.00 0.00 45 1010.1
20260508142113 56 53 0.0 0.0 0.00 0.00 0.00 50 1010.1
20260508141610 57 176 1.7 1.7 0.00 0.00 0.00 50 1010.2
20260508141108 57 19 0.0 0.9 0.00 0.00 0.00 47 1010.1
20260508140605 57 241 0.0 0.0 0.00 0.00 0.00 50 1010.1
20260508135556 57 140 1.7 1.7 0.00 0.00 0.00 53 1010.4
20260508135053 55 46 0.0 0.0 0.00 0.00 0.00 57 1010.4
20260508134550 55 335 0.0 0.0 0.00 0.00 0.00 57 1010.3
20260508134047 53 39 0.0 0.0 0.00 0.00 0.00 58 1010.3
20260508133543 54 141 0.9 1.7 0.00 0.00 0.00 60 1010.5
20260508133041 53 96 0.0 0.0 0.00 0.00 0.00 61 1010.4
20260508132539 53 141 1.7 2.6 0.00 0.00 0.00 60 1010.3
20260508132035 53 42 0.0 0.0 0.00 0.00 0.00 64 1010.4
20260508131530 52 45 0.0 0.0 0.00 0.00 0.00 65 1010.6
20260508131027 52 347 0.0 0.0 0.00 0.00 0.00 66 1010.6
20260508130525 51 142 0.9 0.9 0.00 0.00 0.00 69 1010.7
20260508130021 51 184 1.7 1.7 0.00 0.00 0.00 67 1010.6
20260508125517 51 44 0.0 0.0 0.00 0.00 0.00 69 1010.6
20260508125015 52 78 0.0 0.9 0.00 0.00 0.00 70 1010.4
20260508124513 50 30 0.0 0.0 0.00 0.00 0.00 72 1010.4
20260508124009 50 10 0.0 0.0 0.00 0.00 0.00 73 1010.3
20260508123508 50 71 0.0 0.0 0.00 0.00 0.00 72 1010.4
20260508123004 50 51 0.0 0.0 0.00 0.00 0.00 74 1010.3
20260508122501 48 49 0.0 0.0 0.00 0.00 0.00 76 1010.4
20260508121958 47 26 0.0 0.0 0.00 0.00 0.00 77 1010.4
20260508121456 46 13 0.0 0.0 0.00 0.00 0.00 80 1010.3
20260508120954 45 88 0.0 0.0 0.00 0.00 0.00 82 1010.0
20260508120451 45 61 0.0 0.0 0.00 0.00 0.00 83 1010.2
20260508115949 44 45 0.0 0.0 0.00 0.00 0.00 83 1010.1
20260508115447 43 36 0.0 0.0 0.00 0.00 0.00 85 1010.2
20260508114943 42 45 0.0 0.0 0.00 0.00 0.00 87 1010.2
20260508114440 40 26 0.0 0.0 0.00 0.00 0.00 89 1009.9
20260508113937 39 22 0.0 0.0 0.00 0.00 0.00 90 1010.0
20260508113434 39 291 0.0 0.0 0.00 0.00 0.00 90 1009.9
20260508112931 37 25 0.0 0.0 0.00 0.00 0.00 92 1009.9
20260508112428 36 17 0.0 0.0 0.00 0.00 0.00 93 1009.7
20260508111925 36 17 0.0 0.0 0.00 0.00 0.00 94 1009.5
20260508111422 35 15 0.0 0.0 0.00 0.00 0.00 95 1009.6
20260508110919 35 20 0.0 0.0 0.00 0.00 0.00 95 1009.5
20260508110417 35 17 0.0 0.0 0.00 0.00 0.00 96 1009.5
20260508105916 35 16 0.0 0.0 0.00 0.00 0.00 96 1009.5
20260508105413 35 17 0.0 0.0 0.00 0.00 0.00 96 1009.6
20260508104910 34 17 0.0 0.0 0.00 0.00 0.00 96 1009.4
20260508104407 34 16 0.0 0.0 0.00 0.00 0.00 96 1009.3
20260508103904 34 16 0.0 0.0 0.00 0.00 0.00 96 1009.4
20260508103401 34 16 0.0 0.0 0.00 0.00 0.00 96 1009.4
20260508102858 34 18 0.0 0.0 0.00 0.00 0.00 96 1009.3
20260508102356 34 16 0.0 0.0 0.00 0.00 0.00 95 1009.1
20260508101854 35 17 0.0 0.0 0.00 0.00 0.00 95 1009.4
20260508101350 35 16 0.0 0.0 0.00 0.00 0.00 95 1009.3
20260508100848 35 16 0.0 0.0 0.00 0.00 0.00 95 1009.4
20260508100347 35 18 0.0 0.0 0.00 0.00 0.00 94 1009.3
20260508095842 35 13 0.0 0.0 0.00 0.00 0.00 94 1009.3
20260508095340 35 16 0.0 0.0 0.00 0.00 0.00 94 1009.5
20260508094836 35 16 0.0 0.0 0.00 0.00 0.00 93 1009.5
20260508094333 35 16 0.0 0.0 0.00 0.00 0.00 92 1009.3
20260508093831 36 17 0.0 0.0 0.00 0.00 0.00 92 1009.5
20260508093328 36 22 0.0 0.0 0.00 0.00 0.00 92 1009.4
20260508092825 36 12 0.0 0.0 0.00 0.00 0.00 92 1009.4
20260508092323 36 12 0.0 0.0 0.00 0.00 0.00 92 1009.5
20260508091821 36 17 0.0 0.0 0.00 0.00 0.00 92 1009.5
20260508091317 36 17 0.0 0.0 0.00 0.00 0.00 91 1009.2
20260508090815 36 15 0.0 0.0 0.00 0.00 0.00 90 1009.4
20260508090314 36 15 0.0 0.0 0.00 0.00 0.00 90 1009.3
20260508085809 37 12 0.0 0.0 0.00 0.00 0.00 89 1009.4
20260508085307 37 18 0.0 0.0 0.00 0.00 0.00 89 1009.3
20260508084802 37 14 0.0 0.0 0.00 0.00 0.00 89 1009.4
20260508084259 37 17 0.0 0.0 0.00 0.00 0.00 89 1009.5
20260508083757 37 24 0.0 0.0 0.00 0.00 0.00 88 1009.4
20260508083254 38 22 0.0 0.0 0.00 0.00 0.00 87 1009.6
20260508082754 38 17 0.0 0.0 0.00 0.00 0.00 87 1009.5
20260508082252 38 17 0.0 0.0 0.00 0.00 0.00 86 1009.6
20260508081749 39 17 0.0 0.0 0.00 0.00 0.00 85 1009.5
20260508081245 39 22 0.0 0.0 0.00 0.00 0.00 84 1009.5
20260508080742 39 11 0.0 0.0 0.00 0.00 0.00 84 1009.7
20260508080241 39 12 0.0 0.0 0.00 0.00 0.00 84 1009.5
20260508075737 39 15 0.0 0.0 0.00 0.00 0.00 83 1009.7
20260508075234 40 22 0.0 0.0 0.00 0.00 0.00 82 1009.4
20260508074732 40 17 0.0 0.0 0.00 0.00 0.00 83 1009.7
20260508074229 40 28 0.0 0.0 0.00 0.00 0.00 81 1009.9
20260508073725 40 17 0.0 0.0 0.00 0.00 0.00 81 1009.9
20260508073224 41 18 0.0 0.0 0.00 0.00 0.00 80 1009.6
20260508072719 41 8 0.0 0.0 0.00 0.00 0.00 80 1009.7
20260508072216 40 5 0.0 0.0 0.00 0.00 0.00 80 1009.6
20260508071714 40 7 0.0 0.0 0.00 0.00 0.00 80 1009.6
20260508071212 40 15 0.0 0.0 0.00 0.00 0.00 78 1009.9
20260508070709 40 9 0.0 0.0 0.00 0.00 0.00 78 1010.0
20260508070208 41 19 0.0 0.0 0.00 0.00 0.00 77 1010.0
20260508065704 41 10 0.0 0.0 0.00 0.00 0.00 75 1010.0
20260508065202 41 17 0.0 0.0 0.00 0.00 0.00 75 1009.9
20260508064700 42 18 0.0 0.0 0.00 0.00 0.00 74 1010.0
20260508064158 42 18 0.0 0.0 0.00 0.00 0.00 75 1010.0
20260508063655 42 40 0.0 0.0 0.00 0.00 0.00 74 1010.1
20260508063153 42 14 0.0 0.0 0.00 0.00 0.00 72 1010.2
20260508062650 43 17 0.0 0.0 0.00 0.00 0.00 73 1010.5
20260508062147 43 9 0.0 0.0 0.00 0.00 0.00 73 1010.3
20260508061644 43 15 0.0 0.0 0.00 0.00 0.00 73 1010.2
20260508061141 43 21 0.0 0.0 0.00 0.00 0.00 72 1010.2
20260508060638 44 14 0.0 0.0 0.00 0.00 0.00 71 1010.0
20260508060135 44 12 0.0 0.0 0.00 0.00 0.00 71 1010.3
20260508055630 45 18 0.0 0.0 0.00 0.00 0.00 70 1010.2
20260508055128 45 11 0.0 0.0 0.00 0.00 0.00 70 1010.4
20260508054624 45 10 0.0 0.0 0.00 0.00 0.00 70 1010.2
20260508054122 46 8 0.0 0.0 0.00 0.00 0.00 69 1010.3
20260508053618 46 10 0.0 0.0 0.00 0.00 0.00 68 1010.4
20260508053116 46 11 0.0 0.0 0.00 0.00 0.00 67 1010.3
20260508052614 46 11 0.0 0.0 0.00 0.00 0.00 68 1010.2
20260508052111 46 11 0.0 0.0 0.00 0.00 0.00 69 1010.3
20260508051607 46 29 0.0 0.0 0.00 0.00 0.00 69 1010.2
20260508051102 47 8 0.0 0.0 0.00 0.00 0.00 67 1010.3
20260508050558 47 10 0.0 0.0 0.00 0.00 0.00 68 1010.1
20260508050056 46 17 0.0 0.0 0.00 0.00 0.00 69 1010.3
20260508045552 46 13 0.0 0.0 0.00 0.00 0.00 76 1010.3
20260508045050 46 10 0.9 0.9 0.00 0.00 0.00 78 1010.0
20260508044547 46 15 0.0 0.0 0.00 0.00 0.00 78 1010.1
20260508044043 46 8 0.0 0.0 0.00 0.00 0.00 75 1010.1
20260508043539 46 5 0.0 0.0 0.00 0.00 0.00 76 1010.1
20260508043037 45 11 0.0 0.0 0.00 0.00 0.00 76 1010.0
20260508042533 45 11 0.0 0.0 0.00 0.00 0.00 75 1009.9
20260508042031 46 25 0.0 0.0 0.00 0.00 0.00 74 1009.9
20260508041527 47 6 0.0 0.0 0.00 0.00 0.00 72 1009.9
20260508041024 47 14 0.0 0.0 0.00 0.00 0.00 72 1009.6
20260508040521 47 17 0.0 0.0 0.00 0.00 0.00 71 1009.7
20260508040019 48 21 0.0 0.0 0.00 0.00 0.00 69 1010.1
20260508035515 48 8 0.0 0.0 0.00 0.00 0.00 70 1010.2
20260508035012 48 24 0.0 0.0 0.00 0.00 0.00 71 1010.0
20260508034510 48 13 0.0 0.0 0.00 0.00 0.00 69 1010.1
20260508034006 48 8 0.0 0.0 0.00 0.00 0.00 68 1010.0
20260508033504 48 356 0.0 0.0 0.00 0.00 0.00 68 1009.7
20260508033001 48 11 0.0 0.0 0.00 0.00 0.00 68 1010.0